15min,AgWx,beryljct,423,05FEB2021:00:00:00,24.1,12.76,24.6,23.3,23.8,24.2,23.3,79,80,78,0.336,18.2,18.6,17.5,3.266,3.6,291,6.2,4.5,-0.00005,-0.00005,34.6,36.3,10,0,0,.,6.90,0.00,0.00
15min,AgWx,beryljct,423,05FEB2021:00:15:00,23.9,12.74,26.3,25.1,24.5,25.1,23.2,76,79,74,0.345,18.1,18.9,17.3,3.88,3.7,298,3.4,4.6,-0.00004,-0.00004,34.6,36.3,10,0,0,.,6.90,0.00,0.00
15min,AgWx,beryljct,423,05FEB2021:00:30:00,23.8,12.75,24.1,24.6,25.1,25.8,24.5,74,76,72,0.335,17.9,18.3,17.4,3.047,3.3,311,10,4.7,-0.00004,-0.00004,34.5,36.3,10,0,0,.,6.90,0.00,0.00
15min,AgWx,beryljct,423,05FEB2021:00:45:00,23.6,12.74,25.1,24.8,23.6,24.9,22.5,79,83,74,0.339,18.0,18.9,17.2,2.389,2.7,325,19,4.2,-0.00007,-0.00008,34.5,36.2,10,0,0,.,6.90,0.00,0.00
15min,AgWx,beryljct,423,05FEB2021:01:00:00,23.3,12.73,21.9,21.3,23.7,24.9,21.1,76,82,74,0.321,17.2,18.0,15.2,3.836,2.1,324,67,4.3,-0.00009,-0.00010,34.4,36.2,11,0,0,.,6.90,0.00,0.00
15min,AgWx,beryljct,423,05FEB2021:01:15:00,22.9,12.73,21.7,21.6,22.2,23.1,21.1,85,87,82,0.342,18.2,19.2,16.7,4.845,3.2,159,21,5.4,-0.00007,-0.00007,34.3,36.2,10,0,0,.,6.91,0.00,0.00
15min,AgWx,beryljct,423,05FEB2021:01:30:00,22.7,12.72,23.1,22.8,22.3,23.0,21.4,81,86,78,0.328,17.4,18.0,16.9,4.516,4.8,169,9.1,7.5,-0.00003,-0.00002,34.3,36.1,10,0,0,.,6.90,0.00,0.00
15min,AgWx,beryljct,423,05FEB2021:01:45:00,22.5,12.71,21.3,21.1,22.5,22.9,21.1,78,79,78,0.305,16.8,17.1,15.4,2.85,3.9,172,16,5.5,-0.00004,-0.00003,34.2,36.1,10,0,0,.,6.90,0.00,0.00
15min,AgWx,beryljct,423,05FEB2021:02:00:00,22.3,12.7,21.1,21.0,21.4,21.8,20.7,81,83,79,0.312,16.6,17.2,15.5,2.346,2.5,186,11,3.1,-0.00008,-0.00009,34.1,36.1,10,0,0,.,6.91,0.00,0.00
15min,AgWx,beryljct,423,05FEB2021:02:15:00,21.8,12.69,21.1,20.5,20.3,21.1,19.7,85,87,81,0.330,16.4,17.3,15.6,2.368,1.8,141,4.7,2.8,-0.00010,-0.00012,34.1,36.1,10,0,0,.,6.91,0.00,0.00
15min,AgWx,beryljct,423,05FEB2021:02:30:00,21.2,12.69,19.8,19.8,20.3,20.6,19.8,87,88,86,0.324,17.0,17.5,16.6,0.702,1.7,163,5.4,2.4,-0.00011,-0.00014,34.0,36.0,11,0,0,.,6.91,0.00,0.00
15min,AgWx,beryljct,423,05FEB2021:02:45:00,20.6,12.68,20.0,19.1,18.8,19.8,18.2,89,90,87,0.322,16.0,16.8,15.2,2.148,1.3,209,71,2.4,-0.00012,-0.00015,34.0,36.0,10,0,0,.,6.91,0.00,0.00
15min,AgWx,beryljct,423,05FEB2021:03:00:00,20.2,12.66,19.9,19.5,19.8,20.3,19.2,87,90,85,0.312,16.6,17.1,15.7,1.622,1.7,25,18,2.7,-0.00010,-0.00013,33.9,36.0,11,0,0,.,6.91,0.00,0.00
15min,AgWx,beryljct,423,05FEB2021:03:15:00,19.9,12.65,19.3,18.8,19.1,19.6,18.6,87,88,86,0.310,15.8,16.2,15.3,1.622,0.8,62,0.1,1.8,-0.00013,-0.00019,33.9,35.9,10,0,0,.,6.91,0.00,0.00
15min,AgWx,beryljct,423,05FEB2021:03:30:00,19.5,12.64,19.4,19.1,18.5,19.1,17.7,89,90,87,0.319,15.8,16.6,14.9,2.565,1.7,146,52,2.7,-0.00010,-0.00013,33.8,35.9,10,0,0,.,6.91,0.00,0.00
15min,AgWx,beryljct,423,05FEB2021:03:45:00,19.2,12.63,17.8,17.3,17.4,19.1,16.8,89,90,88,0.297,14.7,16.4,14.2,3.047,2.1,195,17,3.0,-0.00009,-0.00011,33.8,35.9,10,0,0,.,6.90,0.00,0.00
15min,AgWx,beryljct,423,05FEB2021:04:00:00,18.9,12.63,17.9,17.2,17.5,18.0,17.1,90,90,89,0.296,15.0,15.4,14.4,4.669,2.2,188,30,4.7,-0.00009,-0.00011,33.7,35.8,11,0,0,.,6.91,0.00,0.00
15min,AgWx,beryljct,423,05FEB2021:04:15:00,18.7,12.61,17.6,17.4,17.8,18.3,17.3,91,91,89,0.298,15.5,16.1,14.9,1.293,2.4,158,18,4.5,-0.00008,-0.00010,33.7,35.8,10,0,0,.,6.91,0.00,0.00
15min,AgWx,beryljct,423,05FEB2021:04:30:00,18.4,12.62,16.8,16.7,17.2,17.4,16.7,90,90,89,0.287,14.8,15.0,14.1,2.806,2.4,178,4.8,3.7,-0.00008,-0.00010,33.6,35.8,10,0,0,.,6.91,0.00,0.00
15min,AgWx,beryljct,423,05FEB2021:04:45:00,18.1,12.61,17.5,16.7,16.2,16.7,15.7,90,91,89,0.293,13.8,14.5,13.3,3.223,2.5,196,14,3.3,-0.00008,-0.00009,33.6,35.7,10,0,0,.,6.91,0.00,0.00
15min,AgWx,beryljct,423,05FEB2021:05:00:00,17.9,12.59,17.7,17.5,17.4,17.7,16.7,89,91,88,0.293,14.7,15.4,14.1,0,1.3,208,1.2,3.5,-0.00011,-0.00015,33.5,35.7,11,0,0,.,6.91,0.00,0.00
15min,AgWx,beryljct,423,05FEB2021:05:15:00,17.7,12.58,17.7,17.5,17.7,18.0,17.4,89,90,88,0.299,14.9,15.2,14.5,0,0.1,209,0.0,0.7,-0.00016,-0.00025,33.5,35.7,10,0,0,.,6.91,0.00,0.00
15min,AgWx,beryljct,423,05FEB2021:05:30:00,17.5,12.58,17.9,17.6,17.0,17.6,16.5,90,90,89,0.300,14.5,15.1,13.9,0,0.6,236,9.2,2.2,-0.00014,-0.00019,33.5,35.7,10,0,0,.,6.91,0.00,0.00
15min,AgWx,beryljct,423,05FEB2021:05:45:00,17.3,12.58,17.9,17.1,17.4,17.8,16.6,89,90,89,0.295,14.8,15.3,14.0,0.986,0.8,209,12,2.9,-0.00013,-0.00018,33.4,35.6,10,0,0,.,6.91,0.00,0.00
15min,AgWx,beryljct,423,05FEB2021:06:00:00,17.1,12.57,17.1,16.9,17.3,17.6,16.9,90,91,88,0.286,14.8,15.3,13.9,0.636,0.8,216,0.3,2.2,-0.00013,-0.00019,33.4,35.6,11,0,0,.,6.91,0.00,0.00
15min,AgWx,beryljct,423,05FEB2021:06:15:00,17.0,12.56,17.6,17.5,17.4,17.7,16.9,89,90,88,0.299,14.6,15.1,13.9,1.578,0.6,161,24,1.7,-0.00014,-0.00020,33.3,35.6,10,0,0,.,6.91,0.00,0.00
15min,AgWx,beryljct,423,05FEB2021:06:30:00,16.9,12.56,18.2,17.9,17.2,17.9,16.6,90,91,90,0.307,14.9,15.6,14.2,0.373,0.7,154,31,1.9,-0.00013,-0.00019,33.3,35.6,11,0,0,.,6.91,0.00,0.00
15min,AgWx,beryljct,423,05FEB2021:06:45:00,16.8,12.56,17.1,16.9,17.3,17.9,16.9,88,90,87,0.284,14.4,15.5,13.8,0.921,0.4,178,0.1,1.4,-0.00015,-0.00021,33.2,35.5,11,0,0,.,6.91,0.00,0.00
15min,AgWx,beryljct,423,05FEB2021:07:00:00,16.8,12.56,16.6,16.4,16.7,17.3,16.2,89,90,87,0.281,13.9,14.8,13.0,1.578,1.0,358,61,2.2,0.00002,0.00003,33.2,35.5,10,0,0,.,6.91,0.00,0.00
15min,AgWx,beryljct,423,05FEB2021:07:15:00,16.6,12.55,17.0,16.6,16.4,17.4,15.6,90,91,88,0.292,13.9,15.2,13.0,2.236,1.6,120,47,3.3,0.00002,0.00004,33.2,35.5,11,0,0,.,6.91,0.00,0.00
15min,AgWx,beryljct,423,05FEB2021:07:30:00,16.5,12.55,16.9,16.3,16.3,16.7,15.7,91,92,90,0.287,14.1,14.7,13.3,0.504,1.5,158,8.9,2.9,0.00002,0.00004,33.1,35.5,11,2,0,.,6.91,0.00,0.00
15min,AgWx,beryljct,423,05FEB2021:07:45:00,16.5,12.65,16.9,16.6,16.8,17.7,16.2,90,91,88,0.284,14.2,15.4,13.2,2.192,1.4,231,31,2.7,0.00005,0.00006,33.1,35.4,11,10,0,.,6.91,0.00,0.00
15min,AgWx,beryljct,423,05FEB2021:08:00:00,16.7,12.97,17.4,17.0,16.6,17.2,16.0,89,89,88,0.290,13.9,14.6,13.2,1.6,0.5,222,45,2.3,0.00016,0.00017,33.0,35.4,11,51,0,.,6.91,0.00,0.00
15min,AgWx,beryljct,423,05FEB2021:08:15:00,17.7,13.48,19.8,19.3,18.1,19.3,17.0,90,90,89,0.326,15.7,17.0,14.3,2.499,2.1,114,13,3.2,0.00023,0.00026,33.0,35.4,11,88,0,.,6.91,0.00,0.00
15min,AgWx,beryljct,423,05FEB2021:08:30:00,19.5,14.9,20.9,20.5,19.9,20.7,19.3,88,90,85,0.321,16.7,17.4,16.4,1.6,2.5,171,11,3.5,0.00033,0.00038,33.0,35.3,11,128,0,.,6.91,0.00,0.00
15min,AgWx,beryljct,423,05FEB2021:08:45:00,21.6,14.88,23.1,22.0,21.8,23.2,20.4,83,85,80,0.331,17.4,18.3,16.2,1.973,0.7,168,13,2.8,0.00047,0.00052,32.9,35.3,11,169,0,.,6.91,0.00,0.00
15min,AgWx,beryljct,423,05FEB2021:09:00:00,23.9,14.91,23.6,23.3,22.5,23.3,22.0,83,84,82,0.351,18.0,19.0,17.5,3.332,3.3,154,14,4.3,0.00058,0.00066,32.9,35.3,11,215,0,.,6.91,0.00,0.00
15min,AgWx,beryljct,423,05FEB2021:09:15:00,26.0,14.82,26.6,25.0,23.9,25.0,23.1,80,83,79,0.366,18.7,19.7,18.1,2.346,2.0,128,21,3.5,0.00075,0.00083,32.9,35.2,11,259,0,.,6.90,0.00,0.00
15min,AgWx,beryljct,423,05FEB2021:09:30:00,28.0,14.8,28.9,27.1,25.9,27.1,24.8,80,81,78,0.404,20.5,22.1,19.4,2.894,4.1,106,11,5.2,0.00088,0.00101,32.8,35.2,11,305,0,.,6.90,0.00,0.00
15min,AgWx,beryljct,423,05FEB2021:09:45:00,30.0,14.76,31.8,31.0,29.2,31.1,27.2,75,82,65,0.381,22.4,23.7,20.5,4.384,4.4,151,10,5.8,0.00110,0.00128,32.8,35.2,11,348,0,.,6.91,0.00,0.00
15min,AgWx,beryljct,423,05FEB2021:10:00:00,32.2,14.71,33.1,32.6,31.8,32.7,31.1,68,71,65,0.427,22.3,23.7,20.7,5.064,3.9,145,11,5.2,0.00136,0.00157,32.8,35.2,11,390,0,.,6.91,0.00,0.00
15min,AgWx,beryljct,423,05FEB2021:10:15:00,34.6,14.78,35.4,35.7,34.8,36.2,32.6,63,69,59,0.438,23.6,24.8,22.2,3.946,3.7,136,16,5.1,0.00161,0.00187,32.8,35.1,11,430,0,.,6.90,0.00,0.00
15min,AgWx,beryljct,423,05FEB2021:10:30:00,37.1,14.66,37.4,37.4,37.0,38.3,35.7,56,61,50,0.409,22.6,24.1,20.4,3.771,4.2,154,69,6.1,0.00187,0.00220,32.7,35.1,11,467,0,.,6.90,0.00,0.00
15min,AgWx,beryljct,423,05FEB2021:10:45:00,39.6,14.23,41.3,40.6,38.8,40.6,37.2,49,55,45,0.397,21.3,22.5,20.2,4.538,2.8,253,51,8.0,0.00209,0.00241,32.7,35.1,11,500,0,.,6.90,0.00,0.00
15min,AgWx,beryljct,423,05FEB2021:11:00:00,41.9,14.18,43.8,43.0,41.9,43.0,40.7,43,47,40,0.389,21.2,23.1,19.9,7.059,7.8,255,12,10.4,0.00244,0.00309,32.7,35.1,11,532,0,.,6.90,0.00,0.00
15min,AgWx,beryljct,423,05FEB2021:11:15:00,43.7,14.24,43.2,43.4,43.6,44.1,43.0,40,43,38,0.380,21.1,22.7,19.6,6.182,8.3,270,13,12.8,0.00267,0.00341,32.7,35.0,11,559,0,.,6.90,0.00,0.00
15min,AgWx,beryljct,423,05FEB2021:11:30:00,45.2,14.15,47.4,46.4,44.4,46.4,43.2,39,40,36,0.406,20.9,22.5,19.8,6.116,5.4,256,34,11.1,0.00277,0.00338,32.7,35.0,11,583,0,.,6.90,0.00,0.00
15min,AgWx,beryljct,423,05FEB2021:11:45:00,46.9,14.05,48.2,47.6,47.2,48.1,46.0,35,38,32,0.378,20.9,22.4,19.1,11.82,8.6,245,26,14.2,0.00311,0.00400,32.7,35.0,11,604,0,.,6.90,0.00,0.00
15min,AgWx,beryljct,423,05FEB2021:12:00:00,48.2,14.04,48.5,48.4,48.1,48.6,47.6,33,35,31,0.366,20.2,21.3,19.2,14.36,12.2,257,11,16.7,0.00334,0.00448,32.6,35.0,11,620,0,.,6.89,0.00,0.00
15min,AgWx,beryljct,423,05FEB2021:12:15:00,49.1,14.03,49.9,49.2,48.8,49.4,48.3,32,33,31,0.375,20.2,21.5,18.9,13.44,16.3,267,9.4,23.0,0.00353,0.00491,32.6,35.0,11,633,0,.,6.89,0.00,0.00
15min,AgWx,beryljct,423,05FEB2021:12:30:00,49.8,14,50.3,50.0,49.4,50.0,48.9,31,33,30,0.382,20.3,21.4,19.2,15.94,16.9,264,11,21.8,0.00363,0.00506,32.7,34.9,11,642,0,.,6.89,0.00,0.00
15min,AgWx,beryljct,423,05FEB2021:12:45:00,50.2,13.98,49.7,49.6,49.5,50.0,49.3,30,31,28,0.370,19.3,20.6,17.8,20.34,21.6,267,8.4,27.4,0.00378,0.00543,32.6,34.9,11,646,0,.,6.89,0.00,0.00
15min,AgWx,beryljct,423,05FEB2021:13:00:00,50.5,14.01,50.9,50.5,49.9,50.5,49.5,29,31,27,0.352,18.7,20.4,17.2,18.55,21.3,264,9.4,25.8,0.00384,0.00552,32.6,34.9,11,644,0,.,6.88,0.00,0.00
15min,AgWx,beryljct,423,05FEB2021:13:15:00,51.0,14,51.3,51.1,50.6,51.1,50.3,27,28,25,0.359,17.7,19.3,15.9,19.07,19.4,269,8.4,23.6,0.00390,0.00558,32.6,34.9,11,640,0,.,6.88,0.00,0.00
15min,AgWx,beryljct,423,05FEB2021:13:30:00,51.4,13.99,50.3,49.9,50.4,51.1,49.8,28,29,26,0.338,18.3,19.4,17.1,18.66,20.8,270,9.6,25.7,0.00386,0.00557,32.6,34.8,11,633,0,.,6.88,0.00,0.00
15min,AgWx,beryljct,423,05FEB2021:13:45:00,51.5,13.95,50.6,50.4,50.1,50.7,49.7,28,30,26,0.355,18.2,20.0,16.7,22.14,21.8,273,8.4,27.7,0.00377,0.00548,32.6,34.8,11,608,0,.,6.87,0.00,0.00
15min,AgWx,beryljct,423,05FEB2021:14:00:00,51.8,14.06,51.6,51.5,50.6,51.5,50.1,28,29,26,0.377,18.6,20.4,17.2,16.33,20.4,274,9.0,24.8,0.00378,0.00547,32.6,34.8,11,607,0,.,6.87,0.00,0.00
15min,AgWx,beryljct,423,05FEB2021:14:15:00,52.2,13.95,50.4,50.7,50.5,51.5,50.1,27,29,26,0.354,18.2,19.8,17.0,18.04,19.3,280,7.7,25.8,0.00370,0.00535,32.6,34.8,11,590,0,.,6.87,0.00,0.00
15min,AgWx,beryljct,423,05FEB2021:14:30:00,52.5,13.96,50.2,50.1,50.6,51.1,50.1,28,30,27,0.344,18.9,20.7,17.5,16.42,16.1,282,8.6,22.4,0.00343,0.00492,32.6,34.8,11,544,0,.,6.87,0.00,0.00
15min,AgWx,beryljct,423,05FEB2021:14:45:00,52.8,13.97,50.3,50.2,50.3,50.8,50.0,29,31,28,0.363,19.4,21.1,18.4,15.61,16.7,277,9.7,23.0,0.00339,0.00487,32.6,34.8,11,541,0,.,6.87,0.00,0.00
15min,AgWx,beryljct,423,05FEB2021:15:00:00,52.9,13.92,50.5,50.4,50.2,50.5,49.9,30,32,29,0.366,19.7,21.8,18.8,17.54,16.0,276,9.9,21.6,0.00322,0.00464,32.6,34.7,11,505,0,.,6.87,0.00,0.00
15min,AgWx,beryljct,423,05FEB2021:15:15:00,53.1,13.96,51.7,50.9,50.6,51.0,50.3,30,32,28,0.394,20.1,21.6,18.7,11.42,17.3,273,8.8,23.7,0.00323,0.00473,32.6,34.7,11,488,0,.,6.86,0.00,0.00
15min,AgWx,beryljct,423,05FEB2021:15:30:00,53.3,13.93,51.0,50.8,51.0,51.4,50.7,30,32,29,0.377,21.0,22.6,19.7,17.36,15.1,279,8.4,19.4,0.00301,0.00439,32.6,34.7,11,449,0,.,6.87,0.00,0.00
15min,AgWx,beryljct,423,05FEB2021:15:45:00,53.4,13.96,51.2,51.1,50.9,51.2,50.7,30,31,29,0.398,20.5,21.8,19.6,17.95,17.4,275,7.6,21.2,0.00297,0.00447,32.6,34.7,11,409,0,.,6.87,0.00,0.00
15min,AgWx,beryljct,423,05FEB2021:16:00:00,53.5,13.98,51.6,51.4,51.3,51.5,51.0,30,31,29,0.389,20.8,21.5,20.1,14.69,16.3,277,9.5,21.5,0.00280,0.00424,32.6,34.7,11,368,0,.,6.87,0.00,0.00
15min,AgWx,beryljct,423,05FEB2021:16:15:00,53.7,13.94,52.0,51.9,51.5,51.9,51.3,30,30,29,0.397,20.9,21.7,20.2,9.01,12.9,274,9.3,19.8,0.00246,0.00373,32.6,34.7,11,326,0,.,6.86,0.00,0.00
15min,AgWx,beryljct,423,05FEB2021:16:30:00,54.1,13.95,51.6,51.8,51.9,52.1,51.7,31,34,29,0.439,22.0,24.1,20.6,11.16,8.7,299,16,12.0,0.00197,0.00293,32.6,34.6,11,283,0,.,6.86,0.00,0.00
15min,AgWx,beryljct,423,05FEB2021:16:45:00,54.2,14.01,51.4,51.1,51.3,51.8,50.9,36,38,32,0.444,24.9,26.0,22.8,15.96,13.2,331,20,16.9,0.00199,0.00314,32.7,34.6,11,237,0,.,6.87,0.00,0.00
15min,AgWx,beryljct,423,05FEB2021:17:00:00,53.8,13.93,50.1,50.2,50.5,51.1,50.1,37,38,35,0.454,25.1,25.8,24.3,14.78,14.4,350,6.9,18.7,0.00184,0.00300,32.9,34.6,11,194,0,.,6.87,0.00,0.00
15min,AgWx,beryljct,423,05FEB2021:17:15:00,53.0,13.95,49.2,49.2,49.6,50.2,49.2,37,39,36,0.434,24.7,25.9,23.7,15.52,14.3,337,6.7,17.6,0.00074,0.00086,33.0,34.6,11,150,0,.,6.87,0.00,0.00
15min,AgWx,beryljct,423,05FEB2021:17:30:00,51.9,14.02,48.2,47.9,48.4,49.2,47.8,38,40,36,0.426,23.7,24.6,22.8,16.07,15.7,328,6.8,20.5,0.00069,0.00079,33.2,34.6,11,108,0,.,6.87,0.00,0.00
15min,AgWx,beryljct,423,05FEB2021:17:45:00,50.5,13.2,46.3,46.5,47.2,47.9,46.5,39,40,38,0.428,23.4,23.9,22.7,13.44,14.9,325,6.9,18.3,0.00061,0.00070,33.4,34.6,11,64,0,.,6.88,0.00,0.00
15min,AgWx,beryljct,423,05FEB2021:18:00:00,48.7,13.07,44.4,44.7,45.3,46.4,44.6,42,43,40,0.426,23.5,23.9,23.0,12.06,13.7,330,5.2,17.0,0.00048,0.00056,33.6,34.6,11,11,0,.,6.88,0.00,0.00
15min,AgWx,beryljct,423,05FEB2021:18:15:00,46.9,13.02,44.6,44.1,44.7,45.0,44.1,42,43,41,0.426,23.0,23.5,22.5,13.46,14.1,334,6.4,18.6,0.00047,0.00055,33.8,34.7,11,4,0,.,6.88,0.00,0.00
15min,AgWx,beryljct,423,05FEB2021:18:30:00,45.3,13,42.6,42.0,42.8,44.2,42.0,46,48,43,0.435,23.7,24.0,23.2,10.54,10.9,334,5.8,14.3,0.00035,0.00042,33.9,34.7,11,1,0,.,6.88,0.00,0.00
15min,AgWx,beryljct,423,05FEB2021:18:45:00,43.7,12.98,40.4,40.3,41.3,42.2,40.3,49,52,47,0.439,23.8,24.0,23.6,7.87,9.8,329,5.8,13.6,0.00028,0.00035,34.0,34.7,11,0,0,.,6.88,0.00,0.00
15min,AgWx,beryljct,423,05FEB2021:19:00:00,42.1,12.97,39.6,39.5,39.7,40.2,39.1,53,54,51,0.423,23.7,24.1,23.1,6.489,7.4,337,6.4,9.1,0.00019,0.00025,34.1,34.7,11,0,0,.,6.88,0.00,0.00
15min,AgWx,beryljct,423,05FEB2021:19:15:00,40.8,12.95,38.8,38.9,39.2,39.8,38.7,51,53,50,0.404,22.5,23.1,21.9,4.998,6.2,324,8.4,8.8,0.00016,0.00022,34.1,34.8,11,0,0,.,6.88,0.00,0.00
15min,AgWx,beryljct,423,05FEB2021:19:30:00,39.7,12.94,36.9,36.9,38.2,39.5,36.7,52,54,49,0.402,21.9,22.1,21.7,5.656,5.9,309,11,8.2,0.00014,0.00020,34.1,34.8,11,0,0,.,6.89,0.00,0.00
15min,AgWx,beryljct,423,05FEB2021:19:45:00,38.4,12.92,36.4,36.2,36.5,36.9,36.1,55,57,54,0.410,22.1,22.4,21.6,6.314,5.6,303,5.0,6.6,0.00011,0.00015,34.1,34.8,11,0,0,.,6.89,0.00,0.00
15min,AgWx,beryljct,423,05FEB2021:20:00:00,37.7,12.91,38.8,38.8,38.0,39.6,35.8,52,57,48,0.408,22.1,22.4,21.7,4.867,7.2,306,12,9.8,0.00018,0.00023,34.0,34.9,11,0,0,.,6.89,0.00,0.00
15min,AgWx,beryljct,423,05FEB2021:20:15:00,37.3,12.91,37.8,38.2,37.5,39.5,35.1,52,56,48,0.389,21.3,22.3,20.4,3.551,4.8,18,27,7.3,0.00010,0.00015,34.0,34.9,11,0,0,.,6.89,0.00,0.00
15min,AgWx,beryljct,423,05FEB2021:20:30:00,36.8,12.9,35.3,35.5,36.4,38.5,34.7,54,57,50,0.393,21.1,21.5,20.4,3.179,4.0,11,34,8.9,0.00005,0.00009,34.0,34.9,11,0,0,.,6.88,0.00,0.00
15min,AgWx,beryljct,423,05FEB2021:20:45:00,36.1,12.9,35.3,34.7,35.1,36.0,34.5,58,60,56,0.410,21.7,22.3,21.1,5.349,3.6,30,44,6.1,0.00002,0.00004,33.9,35.0,12,0,0,.,6.89,0.00,0.00
15min,AgWx,beryljct,423,05FEB2021:21:00:00,35.8,12.88,37.4,36.6,35.6,36.6,34.7,58,60,56,0.409,22.3,22.5,22.2,9.91,6.9,49,5.0,9.9,0.00012,0.00016,33.9,35.0,11,0,0,.,6.89,0.00,0.00
15min,AgWx,beryljct,423,05FEB2021:21:15:00,36.0,12.87,36.6,36.5,37.0,37.5,36.5,54,55,54,0.402,22.0,22.3,21.7,6.73,8.2,43,7.2,11.1,0.00018,0.00023,33.9,35.0,11,0,0,.,6.89,0.00,0.00
15min,AgWx,beryljct,423,05FEB2021:21:30:00,35.9,12.87,34.8,34.8,35.5,36.4,34.8,57,58,55,0.398,21.7,21.9,21.6,3.902,5.4,35,6.6,7.5,0.00009,0.00013,33.9,35.0,12,0,0,.,6.89,0.00,0.00
15min,AgWx,beryljct,423,05FEB2021:21:45:00,35.6,12.86,34.6,35.1,35.5,36.0,34.8,57,59,56,0.399,21.8,22.0,21.6,3.288,3.9,6.6,9.4,5.3,0.00003,0.00006,33.8,35.0,11,0,0,.,6.89,0.00,0.00
15min,AgWx,beryljct,423,05FEB2021:22:00:00,35.1,12.85,34.3,34.0,34.1,35.1,33.7,60,62,58,0.397,21.7,22.2,21.4,4.428,4.0,7.4,15,5.6,0.00002,0.00005,33.8,35.0,12,0,0,.,6.89,0.00,0.00
15min,AgWx,beryljct,423,05FEB2021:22:15:00,34.7,12.84,34.1,34.0,34.1,34.4,33.6,60,62,59,0.397,21.8,22.0,21.5,4.384,4.9,14,8.9,7.4,0.00005,0.00008,33.8,35.0,11,0,0,.,6.90,0.00,0.00
15min,AgWx,beryljct,423,05FEB2021:22:30:00,34.2,12.84,32.9,32.7,33.4,34.0,32.7,62,63,60,0.397,21.7,21.8,21.5,0.811,2.7,11,13,4.7,-0.00004,-0.00003,33.8,35.0,11,0,0,.,6.90,0.00,0.00
15min,AgWx,beryljct,423,05FEB2021:22:45:00,33.3,12.84,31.9,31.6,31.8,32.7,31.5,65,66,63,0.393,21.4,21.7,21.2,0,0.1,36,0.0,1.0,-0.00024,-0.00038,33.7,35.0,12,0,0,.,6.90,0.00,0.00
15min,AgWx,beryljct,423,05FEB2021:23:00:00,32.3,12.83,31.8,31.4,31.8,32.3,31.4,64,66,64,0.392,21.2,21.6,21.0,2.938,1.9,342,14,3.9,-0.00009,-0.00011,33.7,35.1,11,0,0,.,6.90,0.00,0.00
15min,AgWx,beryljct,423,05FEB2021:23:15:00,31.8,12.82,29.9,29.8,30.7,31.4,29.8,68,70,66,0.391,21.4,21.7,21.1,3.31,3.2,351,9.0,4.7,-0.00003,-0.00003,33.7,35.1,11,0,0,.,6.90,0.00,0.00
15min,AgWx,beryljct,423,05FEB2021:23:30:00,31.2,12.82,31.3,31.4,29.9,31.4,29.2,70,72,67,0.400,21.5,22.1,21.0,4.275,4.2,331,12,6.9,-0.00001,0.00000,33.7,35.1,11,0,0,.,6.90,0.00,0.00
15min,AgWx,beryljct,423,05FEB2021:23:45:00,30.9,12.8,30.7,30.5,30.5,31.5,29.7,69,72,67,0.395,21.7,22.0,21.4,3.091,3.1,344,15,6.5,-0.00004,-0.00004,33.6,35.0,11,0,0,.,6.89,0.00,0.00
15min,AgWx,bigpiney,439,05FEB2021:00:00:00,4.1,12.57,5.0,0.1,0.3,1.9,-0.9,78,80,76,0.119,-5.0,-3.8,-6.4,6.862,3.7,233,27,6.9,-0.00000,0.00000,21.0,26.7,8,0,0,0.0,0.16,0.00,0.00
15min,AgWx,bigpiney,439,05FEB2021:00:15:00,3.7,12.56,-1.7,-1.3,1.0,4.4,-1.3,78,83,76,0.111,-4.3,0.5,-6.8,4.757,5.4,216,5.6,7.1,0.00001,0.00001,20.9,26.6,8,0,0,0.0,0.16,0.00,0.00
15min,AgWx,bigpiney,439,05FEB2021:00:30:00,3.2,12.55,7.1,2.6,0.5,7.2,-2.5,80,87,71,0.134,-4.3,3.3,-8.0,2.499,3.5,215,17,5.7,-0.00000,-0.00000,20.8,26.6,8,0,0,0.0,0.16,0.00,0.00
15min,AgWx,bigpiney,439,05FEB2021:00:45:00,2.5,12.54,3.6,5.4,2.7,5.7,-1.0,79,84,72,0.155,-2.4,1.2,-7.7,3.442,4.6,214,13,7.0,0.00000,0.00001,20.6,26.6,8,0,0,0.0,0.16,0.00,0.00
15min,AgWx,bigpiney,439,05FEB2021:01:00:00,2.2,12.53,0.3,6.8,6.7,8.6,0.6,78,83,72,0.153,1.3,2.9,-6.2,5.261,3.7,177,33,9.3,-0.00000,0.00000,20.5,26.5,8,0,0,0.0,0.16,0.00,0.00
15min,AgWx,bigpiney,439,05FEB2021:01:15:00,2.8,12.52,8.7,7.8,7.2,8.2,4.2,77,79,70,0.168,1.6,2.6,-3.2,4.954,3.4,197,17,7.3,-0.00000,-0.00000,20.4,26.4,8,0,0,0.0,0.16,0.00,0.00
15min,AgWx,bigpiney,439,05FEB2021:01:30:00,3.4,12.51,4.3,6.4,5.0,8.1,2.1,77,82,71,0.159,-0.5,2.8,-4.9,6.314,6.5,214,14,9.8,0.00002,0.00002,20.2,26.4,8,0,0,0.0,0.16,0.00,0.00
15min,AgWx,bigpiney,439,05FEB2021:01:45:00,3.7,12.5,1.4,1.4,2.6,6.1,0.5,77,80,74,0.129,-3.1,0.5,-5.0,4.275,5.0,225,12,8.1,0.00001,0.00001,20.1,26.3,8,0,0,0.0,0.16,0.00,0.00
15min,AgWx,bigpiney,439,05FEB2021:02:00:00,3.5,12.49,4.4,3.7,1.3,3.7,-1.2,80,85,78,0.145,-3.3,-0.3,-6.4,0.877,1.6,248,23,4.4,-0.00003,-0.00003,20.0,26.3,8,0,0,0.0,0.16,0.00,0.00
15min,AgWx,bigpiney,439,05FEB2021:02:15:00,3.2,12.49,-1.8,0.8,4.4,6.4,0.8,79,81,72,0.113,-0.8,1.5,-6.2,2.543,2.5,230,40,5.0,-0.00002,-0.00002,19.9,26.2,8,0,0,0.0,0.16,0.00,0.00
15min,AgWx,bigpiney,439,05FEB2021:02:30:00,3.1,12.47,7.6,4.2,1.0,4.2,-0.8,80,84,72,0.154,-3.8,0.4,-7.4,0,0.6,272,20,3.1,-0.00005,-0.00006,19.7,26.1,8,0,0,0.0,0.16,0.00,0.00
15min,AgWx,bigpiney,439,05FEB2021:02:45:00,2.9,12.46,2.8,4.7,6.8,7.8,4.5,79,84,72,0.135,1.6,2.3,-2.4,2.433,1.1,192,33,2.7,-0.00004,-0.00006,19.6,26.0,8,0,0,0.0,0.16,0.00,0.00
15min,AgWx,bigpiney,439,05FEB2021:03:00:00,3.1,12.46,1.7,1.5,4.9,6.9,1.5,77,80,72,0.122,-0.7,1.9,-4.8,0.702,1.9,232,60,5.6,-0.00002,-0.00002,19.5,26.0,8,0,0,0.0,0.16,0.00,0.00
15min,AgWx,bigpiney,439,05FEB2021:03:15:00,3.3,12.45,4.3,3.1,1.8,4.1,-0.9,79,84,75,0.142,-3.1,0.1,-6.6,2.061,1.5,166,62,4.1,-0.00003,-0.00003,19.5,26.0,8,0,0,0.0,0.16,0.00,0.00
15min,AgWx,bigpiney,439,05FEB2021:03:30:00,3.2,12.43,1.4,1.4,1.0,3.1,-0.5,80,83,78,0.134,-3.8,-1.4,-5.4,1.732,1.9,307,49,5.9,-0.00002,-0.00003,19.4,26.0,8,0,0,0.0,0.16,0.00,0.00
15min,AgWx,bigpiney,439,05FEB2021:03:45:00,3.1,12.42,1.8,0.3,1.7,2.9,0.2,82,84,79,0.124,-2.4,-0.9,-4.9,0,0.4,242,20,2.0,-0.00005,-0.00008,19.3,25.8,8,0,0,0.0,0.16,0.00,0.00
15min,AgWx,bigpiney,439,05FEB2021:04:00:00,2.9,12.42,3.7,2.8,2.2,2.9,0.4,83,84,81,0.143,-1.7,-0.9,-4.2,0,0.8,135,13,2.2,-0.00004,-0.00006,19.2,25.8,8,0,0,0.0,0.16,0.00,0.00
15min,AgWx,bigpiney,439,05FEB2021:04:15:00,2.9,12.4,3.4,3.6,3.3,3.9,2.3,83,83,80,0.148,-0.8,-0.1,-2.5,1.666,1.8,198,36,6.6,-0.00003,-0.00003,19.2,25.8,8,0,0,0.0,0.16,0.00,0.00
15min,AgWx,bigpiney,439,05FEB2021:04:30:00,3.1,12.4,2.9,3.3,3.5,4.6,2.2,82,83,79,0.143,-0.8,0.5,-2.7,3.244,2.7,232,19,4.1,-0.00002,-0.00002,19.1,25.7,8,0,0,0.0,0.16,0.00,0.00
15min,AgWx,bigpiney,439,05FEB2021:04:45:00,3.5,12.4,3.2,4.5,4.0,5.4,2.6,82,84,79,0.153,-0.4,1.3,-2.1,4.121,2.6,241,17,4.3,-0.00002,-0.00002,19.1,25.6,8,0,0,0.0,0.16,0.00,0.00
15min,AgWx,bigpiney,439,05FEB2021:05:00:00,3.7,12.39,4.3,3.5,2.9,5.2,1.8,81,85,78,0.142,-1.7,1.6,-3.2,1.096,2.2,247,49,4.7,-0.00002,-0.00002,19.0,25.6,8,0,0,0.0,0.16,0.00,0.00
15min,AgWx,bigpiney,439,05FEB2021:05:15:00,3.9,12.39,4.5,2.8,3.0,3.4,2.5,80,82,79,0.141,-1.7,-1.1,-2.2,2.981,1.4,201,83,3.3,-0.00003,-0.00004,19.0,25.6,8,0,0,0.0,0.16,0.00,0.00
15min,AgWx,bigpiney,439,05FEB2021:05:30:00,4.2,12.37,5.8,4.9,4.6,5.3,2.9,82,83,81,0.156,0.3,1.1,-1.4,1.798,1.3,304,50,2.8,-0.00004,-0.00005,19.0,25.6,8,0,0,0.0,0.16,0.00,0.00
15min,AgWx,bigpiney,439,05FEB2021:05:45:00,4.8,12.38,4.6,3.5,3.8,4.9,3.3,82,83,81,0.148,-0.4,0.5,-0.9,2.872,3.3,350,32,5.9,-0.00001,-0.00001,18.9,25.4,8,0,0,0.0,0.16,0.00,0.00
15min,AgWx,bigpiney,439,05FEB2021:06:00:00,5.2,12.37,6.0,4.6,4.0,4.7,3.4,83,84,83,0.156,0.0,0.7,-0.7,4.143,3.7,323,42,6.5,-0.00001,-0.00001,18.9,25.4,8,0,0,0.0,0.16,0.00,0.00
15min,AgWx,bigpiney,439,05FEB2021:06:15:00,5.7,12.35,6.9,5.6,5.2,5.7,4.6,83,84,83,0.164,1.3,1.7,0.6,2.346,3.1,350,35,5.3,-0.00001,-0.00001,18.9,25.3,8,0,0,0.0,0.16,0.00,0.00
15min,AgWx,bigpiney,439,05FEB2021:06:30:00,6.3,12.37,8.3,6.8,6.2,6.8,5.6,83,84,83,0.172,2.2,2.7,1.6,0.066,1.4,12,42,3.5,-0.00004,-0.00005,19.0,25.3,8,0,0,0.0,0.16,0.00,0.00
15min,AgWx,bigpiney,439,05FEB2021:06:45:00,7.1,12.37,9.1,7.5,7.1,7.6,6.8,83,84,83,0.179,3.0,3.7,2.7,0,1.0,31,62,2.7,-0.00005,-0.00006,19.0,25.3,8,0,0,0.0,0.16,0.00,0.00
15min,AgWx,bigpiney,439,05FEB2021:07:00:00,7.7,12.35,9.4,7.8,7.7,7.9,7.5,84,84,83,0.183,3.8,4.1,3.6,1.118,1.1,337,64,2.2,-0.00005,-0.00006,19.0,25.2,8,0,0,0.0,0.16,0.00,0.00
15min,AgWx,bigpiney,439,05FEB2021:07:15:00,8.4,12.35,9.8,8.2,8.0,8.2,7.8,85,85,84,0.188,4.4,4.6,4.0,0.548,0.9,257,30,2.9,-0.00005,-0.00007,19.1,25.2,8,0,0,0.0,0.16,0.00,0.00
15min,AgWx,bigpiney,439,05FEB2021:07:30:00,8.9,12.35,10.6,8.8,8.5,8.8,8.2,85,86,85,0.195,5.0,5.4,4.6,1.841,1.6,261,21,4.5,-0.00004,-0.00005,19.1,25.1,8,1,0,0.0,0.16,0.00,0.00
15min,AgWx,bigpiney,439,05FEB2021:07:45:00,9.5,12.38,10.8,9.1,9.0,9.2,8.8,86,86,86,0.198,5.6,6.0,5.4,1.03,0.5,261,36,2.6,-0.00006,-0.00006,19.2,25.1,8,6,0,0.0,0.16,0.00,0.00
15min,AgWx,bigpiney,439,05FEB2021:08:00:00,10.1,12.45,10.4,8.7,8.9,9.1,8.7,86,86,86,0.195,5.5,5.7,5.3,2.192,1.3,180,9.6,2.2,-0.00005,-0.00004,19.3,25.0,8,16,0,0.0,0.16,0.00,0.00
15min,AgWx,bigpiney,439,05FEB2021:08:15:00,10.6,12.62,11.0,9.0,8.9,9.1,8.7,86,86,86,0.198,5.6,5.9,5.3,1.82,1.2,192,10,2.8,-0.00002,-0.00001,19.3,25.0,8,39,0,0.0,0.16,0.00,0.00
15min,AgWx,bigpiney,439,05FEB2021:08:30:00,11.0,12.91,11.8,9.9,9.4,9.9,9.0,86,86,86,0.204,6.1,6.6,5.7,1.008,1.0,244,31,1.8,0.00004,0.00006,19.4,25.0,8,66,0,0.0,0.16,0.00,0.00
15min,AgWx,bigpiney,439,05FEB2021:08:45:00,11.7,13.15,12.9,10.8,10.4,10.9,9.9,86,86,86,0.213,7.0,7.5,6.4,3.003,1.2,283,45,3.1,0.00012,0.00014,19.5,25.0,8,77,0,0.0,0.16,0.00,0.00